Simultaneous Nadir Overpasses (SNOs) Predictions

Prediction of SNOs between METOP-B and NOAA-19 Satellite Orbit:

Table of predicted SNOs for the next 14.0 days since TLE Epoch: 3/14/2014
Index Date (METOP-B) Time (METOP-B) Lat,Lon (METOP-B) SZA (METOP-B ) Date (NOAA-19) Time (NOAA-19) Lat,Lon (NOAA-19) SZA (NOAA-19 ) Distance(km) Time Diff (sec)
1 03/24/2014 00:17:48 74.22, 171.10 72.92 03/24/2014 00:16:38 74.23, 169.15 73.01 58.93 70
2 03/24/2014 01:08:38 -73.83, -22.53 107.46 03/24/2014 01:07:36 -73.82, -22.59 107.46 2.07 62
3 03/24/2014 01:59:17 73.80, 144.74 72.51 03/24/2014 01:58:32 73.80, 144.73 72.51 0.49 45
4 03/24/2014 02:50:00 -73.76, -48.04 107.55 03/24/2014 02:49:38 -73.78, -48.00 107.53 2.47 22
5 03/24/2014 03:40:39 73.78, 119.35 72.46 03/24/2014 03:40:35 73.76, 119.31 72.44 2.85 4
6
